User: anonymous   Login
Location: Unspecified
(0.0000°N, 0.0000°E)
Time: 16:03:53
(UTC+00:00)
Language:

PAKSAT 1R - Orbit

View from above orbital plane
View from above orbital plane
View from above satellite
View from above satellite

Ground track
Ground track

The orbit data is extracted from the following two-line orbital elements,

1 37779U 11042A   16152.17981145  .00000147  00000-0  00000+0 0  9993
2 37779   0.0082 123.5091 0002696 278.9051 309.4354  1.00274483 17488
Epoch (UTC): 31 May 2016 04:18:55
Eccentricity: 0.0002696
inclination: 0.0082°
perigee height: 35774 km
apogee height: 35797 km
right ascension of ascending node: 123.5091°
argument of perigee: 278.9051°
revolutions per day: 1.00274483
mean anomaly at epoch: 309.4354°
orbit number at epoch: 1748

The dashed part of the orbit path shows where the satellite is in the earth's shadow,  

DLR